Lapse_Rate
0.1 -0.1 -0.5 -0.7 -1.0 -1.2 -1.6 -1.9 -2.5 -3.0 -3.5 -4.2 -4.4 -5.8 -6.7 -7.2 -7.5 -5.7 1.7 3.0 0.7 0.1 1.3 1.2 2.0 4.5 4.3 4.2 4.8 4.0 6.5 6.5 6.5 6.5 6.5 6.4 6.5 6.8 6.6 6.7 7.2 6.9 5.1 4.9 4.8
0.3 0.1 -0.3 -0.5 -0.7 -1.2 -1.7 -2.1 -2.5 -3.0 -3.5 -4.2 -4.7 -5.5 -6.4 -6.8 -6.9 -1.6 1.4 0.3 -1.1 -0.4 1.9 2.6 3.6 4.1 3.8 4.5 4.6 6.0 6.5 6.5 6.5 6.4 6.5 6.5 6.5 6.3 6.5 6.4 6.4 5.0 4.8 5.0 4.8
-0.0 -0.0 -0.3 -0.6 -0.7 -1.1 -1.7 -2.2 -2.7 -3.2 -3.5 -4.2 -4.9 -5.1 -5.8 -6.6 -0.2 4.0 0.1 -0.7 -0.9 -0.2 3.5 5.0 4.4 5.1 5.9 5.5 6.0 6.3 6.5 6.5 6.5 5.7 6.6 6.5 6.4 6.8 6.2 6.4 6.1 5.3 4.8 5.1 4.8
-0.3 -0.5 -0.6 -0.7 -1.0 -1.4 -1.9 -2.3 -2.9 -3.5 -3.7 -4.2 -4.7 -4.9 -5.7 -5.1 6.5 3.7 -0.9 -0.9 -0.8 0.5 4.1 4.5 5.0 5.9 6.3 6.6 6.0 6.5 6.5 6.4 6.4 6.2 6.6 6.4 6.5 6.4 6.2 6.2 5.1 4.4 4.0 4.7 4.7
-0.3 -0.7 -1.2 -1.3 -1.5 -1.8 -2.0 -2.7 -3.3 -3.8 -4.0 -4.0 -4.3 -4.6 -3.1 3.2 2.5 0.9 -1.3 -1.3 -0.7 1.4 3.5 4.8 5.4 5.2 6.5 6.5 6.3 6.6 6.5 6.2 5.6 6.3 6.4 6.7 6.2 6.3 6.4 5.3 5.3 4.9 4.9 4.6 4.8
-0.4 -0.8 -1.3 -1.7 -1.8 -2.0 -2.5 -3.0 -3.6 -4.1 -4.1 -3.9 -4.0 -3.9 -0.1 6.1 3.7 -0.3 -0.8 -1.3 -0.9 1.2 3.3 4.7 5.2 5.3 5.7 6.3 6.4 6.4 6.0 6.4 6.5 6.1 6.6 6.5 6.3 6.3 6.5 5.4 5.6 5.0 4.5 4.8 5.2
-0.5 -0.9 -1.6 -2.1 -2.1 -2.4 -3.1 -3.5 -3.8 -4.4 -4.5 -3.8 -3.7 -2.4 2.0 2.3 1.7 -0.2 -0.2 -0.8 -0.5 0.2 3.6 4.4 6.4 5.6 5.0 6.5 6.4 5.7 6.5 6.5 6.3 6.2 6.4 6.0 6.5 6.5 5.7 5.9 6.2 6.0 5.5 5.7 5.7
-0.9 -1.5 -1.8 -2.3 -2.6 -3.1 -3.8 -4.0 -4.5 -4.8 -4.1 -3.3 -3.2 -1.4 1.5 2.1 0.5 1.4 0.5 2.4 2.6 1.5 3.5 4.1 5.7 4.2 5.3 5.2 5.8 6.5 6.5 6.5 6.6 6.3 6.0 6.0 6.6 6.5 5.4 5.7 5.8 6.2 6.3 6.7 5.8
-1.0 -1.6 -2.1 -2.4 -2.9 -3.8 -4.3 -4.6 -4.7 -3.5 -2.8 -2.1 -1.2 1.5 2.6 2.8 2.7 1.5 1.0 2.3 1.8 2.8 4.0 7.3 4.8 4.5 5.6 6.5 6.6 6.5 6.5 6.5 6.5 6.5 6.6 6.5 6.5 6.0 5.2 5.2 5.2 5.0 5.5 5.8 5.2
-0.8 -1.5 -2.3 -2.6 -3.2 -4.4 -4.8 -4.9 -3.6 -2.8 -0.9 -0.0 2.1 3.7 2.4 5.4 4.5 3.7 1.5 3.4 2.7 3.1 5.8 6.3 2.6 6.5 6.5 6.5 6.5 6.5 6.5 6.5 6.5 6.5 6.5 6.5 6.5 6.5 5.1 5.6 5.0 4.4 4.4 4.3 4.4
-0.6 -1.3 -2.1 -2.6 -3.7 -4.3 -5.5 -1.0 1.8 3.3 2.3 3.9 4.6 4.4 3.8 3.3 3.5 4.1 2.6 5.4 5.0 5.3 6.5 5.7 6.4 6.5 6.5 6.4 6.6 6.5 6.5 6.5 6.5 6.5 6.4 6.5 6.5 6.6 5.4 5.5 5.6 4.5 3.8 3.6 3.6
-0.8 -1.3 -2.2 -2.9 -4.2 -4.6 -4.9 2.9 3.2 4.7 4.3 1.2 1.3 2.4 2.3 5.5 5.2 4.5 4.2 5.2 5.6 6.5 6.3 6.5 6.5 6.5 6.6 6.5 6.5 6.5 6.5 6.5 6.4 6.5 6.5 6.5 6.5 6.5 6.2 5.8 5.3 4.5 3.8 3.0 3.6
-0.5 -1.3 -2.4 -3.4 -4.9 -3.8 -3.4 2.5 0.6 2.7 5.1 3.6 3.0 3.3 4.0 3.5 4.7 3.0 4.1 3.9 6.4 6.5 6.5 6.5 6.5 6.5 6.5 6.5 6.5 6.5 6.5 6.5 6.5 6.5 6.5 6.5 6.5 6.5 6.5 6.0 5.3 4.5 4.6 4.1 3.1
-0.3 -1.0 -2.4 -4.2 -1.3 -5.1 0.1 0.5 -1.5 -0.9 6.5 6.5 6.0 4.3 3.6 3.0 5.6 2.7 3.3 4.6 6.3 6.5 6.4 6.5 6.4 6.5 6.5 6.5 6.5 6.5 6.4 6.4 6.5 6.5 6.6 6.5 6.5 6.5 6.5 6.5 6.3 4.3 4.5 3.3 3.1
-0.2 -0.9 -2.2 -3.2 -4.4 -2.8 1.8 -3.7 -2.0 0.9 6.5 6.5 6.0 5.5 4.3 4.8 5.4 4.6 3.8 4.6 6.5 6.4 6.4 6.5 6.5 6.4 6.5 6.4 6.5 6.5 6.6 6.5 6.5 6.5 6.5 6.5 6.4 6.5 6.5 6.5 6.4 5.2 4.1 4.1 3.7
-0.5 -1.0 -2.3 -3.6 -5.8 -4.3 -4.0 -4.4 0.2 6.5 6.6 6.6 6.3 6.4 6.4 6.0 6.0 5.7 5.4 5.6 4.2 6.5 6.5 6.6 6.0 6.5 6.6 6.5 6.6 6.5 6.5 6.5 6.5 6.5 6.5 6.5 6.5 6.4 6.5 6.5 6.5 5.7 4.1 4.7 3.6
-1.0 -2.1 -2.7 -2.8 -0.6 -3.2 -4.4 0.9 6.5 6.5 6.5 6.5 6.5 6.5 6.5 6.5 6.5 6.5 6.5 6.5 6.5 6.5 6.5 6.4 6.5 6.5 6.0 6.5 6.5 6.5 6.5 6.5 6.5 6.5 6.5 6.5 6.5 6.5 6.5 6.5 6.4 6.0 3.7 3.2 3.0
-1.8 -3.3 -4.2 -3.9 -3.9 -3.5 -0.4 5.9 6.5 6.5 6.6 6.5 6.5 6.6 6.5 6.5 6.4 6.5 6.5 6.6 6.5 6.5 6.5 6.5 6.5 6.5 6.5 6.5 6.5 6.5 6.5 6.5 6.5 6.5 6.5 6.6 6.5 6.5 6.5 5.5 3.7 4.3 4.6 3.9 3.1
-3.0 -5.5 -5.0 -3.9 -4.5 -3.2 2.8 6.5 6.5 6.5 6.5 6.5 6.5 6.5 6.5 6.5 6.5 6.5 6.5 6.5 6.5 6.4 6.5 6.5 6.5 6.5 6.5 6.5 6.5 6.5 6.5 6.5 6.5 6.5 6.5 6.4 6.5 6.4 6.5 6.6 5.6 4.8 4.8 3.3 2.2
-3.9 -4.1 -1.6 -2.0 -2.9 -0.4 5.5 6.5 6.5 6.4 6.5 6.5 6.5 6.5 6.4 6.5 6.5 6.5 6.5 6.5 6.5 6.5 6.3 6.5 6.5 6.5 6.5 6.1 6.3 6.5 6.5 6.5 6.5 6.5 6.4 6.5 6.5 6.5 6.5 6.5 6.5 6.2 4.2 2.4 1.5
-3.5 0.6 1.5 -1.7 -1.1 2.1 6.5 6.6 6.5 5.0 5.6 6.5 6.5 6.5 6.5 6.5 6.5 6.5 6.6 6.5 6.5 6.5 6.3 6.5 6.5 6.5 6.5 6.5 6.5 6.5 6.5 6.5 6.5 6.5 6.5 6.5 6.5 6.5 6.5 6.5 6.5 5.5 3.2 2.1 1.4
-2.5 6.3 1.6 0.9 4.8 4.7 6.5 6.6 5.6 6.4 6.0 6.5 6.5 6.6 6.5 6.6 6.5 6.5 6.5 6.5 5.5 5.6 6.5 6.5 6.5 6.5 6.5 6.5 6.5 6.5 6.5 6.5 6.4 6.5 6.5 6.5 6.5 6.5 6.5 6.1 4.5 3.9 3.4 1.3 -0.1
0.6 -0.3 1.4 2.8 6.5 6.5 6.3 6.5 6.4 6.4 6.6 6.5 6.5 6.5 6.5 6.4 6.5 6.5 6.5 6.1 5.6 6.4 6.5 6.4 6.6 6.4 6.5 6.5 6.5 6.5 6.5 6.5 6.5 6.5 6.5 6.5 6.6 6.5 6.1 6.1 5.3 3.1 1.4 -0.2 -0.8
1.6 6.5 3.3 3.4 2.9 6.5 6.5 6.5 6.5 6.0 6.4 6.1 6.6 6.4 6.5 6.5 6.5 6.4 6.6 6.4 5.2 6.2 4.7 4.6 6.4 6.5 6.5 6.4 6.5 6.5 6.5 6.5 6.5 6.5 6.5 6.5 6.5 6.4 6.5 6.5 5.1 2.5 1.3 -0.1 -0.0
2.1 5.8 6.2 6.5 6.2 6.5 6.4 6.5 6.5 6.5 6.3 5.4 6.5 6.5 6.5 6.5 6.5 6.5 6.4 6.6 6.2 5.0 6.0 6.4 6.5 6.5 6.5 6.5 6.5 6.5 6.5 6.5 6.5 6.6 6.5 6.5 6.5 6.5 6.5 6.5 4.5 2.3 2.5 1.8 1.6
3.9 5.9 4.5 5.0 5.2 6.5 6.5 6.6 6.5 6.5 6.4 6.4 6.4 6.4 6.6 6.5 6.4 6.5 6.5 6.5 6.6 6.5 6.5 6.5 6.5 6.6 6.6 6.5 6.5 6.5 6.4 6.5 6.5 6.5 6.5 6.5 6.5 6.6 5.2 4.1 5.1 3.9 3.2 3.0 2.6
3.0 5.3 6.2 6.0 6.4 6.5 6.4 6.5 6.5 6.5 6.2 6.1 6.4 6.4 6.5 6.4 5.5 5.4 4.6 4.2 5.8 6.6 6.5 6.5 6.5 6.4 6.5 6.5 6.5 6.5 6.5 6.5 6.5 6.5 6.5 6.5 6.5 6.5 6.5 6.2 5.8 4.4 3.8 2.3 2.0
Wind_Speed
22 22 22 22 22 23 25 26 25 25 26 25 23 23 21 24 19 3 5 8 7 22 10 7 3 1 3 2 1 2 4 2 5 6 5 6 5 5 6 7 2 2 4 7 12
22 22 23 23 22 24 25 26 26 25 26 25 24 23 21 21 4 5 9 8 24 23 8 7 4 5 3 1 2 4 4 7 6 6 9 8 6 7 5 4 4 9 11 13 12
22 23 23 24 24 24 25 26 27 26 26 26 25 22 20 14 4 5 8 17 23 17 4 1 6 2 0 1 2 2 3 2 2 7 13 10 4 3 9 2 3 12 11 12 11
24 24 24 24 25 25 25 26 28 27 25 25 25 23 22 1 7 3 8 15 21 8 5 4 3 2 3 3 1 4 2 2 4 10 10 11 9 4 3 3 8 13 15 11 11
24 24 24 25 27 26 26 27 28 28 25 24 23 20 5 2 7 5 11 16 12 3 5 4 2 3 4 1 2 3 3 3 10 10 10 11 6 4 1 7 11 11 13 12 9
24 24 25 26 27 28 27 27 28 29 25 23 19 14 2 3 4 2 8 10 7 5 6 4 1 2 5 4 3 2 7 10 12 10 8 10 4 3 3 9 12 12 11 10 11
24 25 26 27 29 29 29 29 29 30 26 21 12 3 2 10 2 4 6 4 4 4 5 5 2 6 3 2 4 5 15 11 6 5 5 9 2 3 5 10 12 11 11 12 13
26 27 27 29 31 31 30 31 30 29 21 10 4 2 6 3 2 2 0 2 2 5 3 8 4 6 3 4 6 5 5 4 2 4 4 4 3 3 7 9 8 8 10 10 13
25 27 28 29 30 32 33 34 28 8 3 9 3 2 7 2 3 7 8 5 3 3 3 7 5 4 3 4 5 5 3 4 3 1 5 3 3 7 7 8 9 8 8 8 7
25 27 28 30 32 33 35 28 7 2 1 3 2 2 4 2 4 3 4 5 5 6 0 2 4 4 4 3 4 5 5 1 5 5 3 3 6 4 7 6 9 8 7 7 7
26 27 29 31 33 33 15 3 5 3 3 6 3 3 4 8 3 4 5 5 4 5 5 1 4 6 10 5 1 8 7 5 2 4 5 4 6 7 7 6 6 7 8 8 9
27 29 30 33 32 30 2 4 7 2 7 6 9 7 6 1 3 4 6 6 5 5 5 5 7 7 5 7 5 6 7 6 2 6 4 2 5 7 5 6 7 8 8 9 5
27 29 31 34 36 4 3 5 3 2 2 7 6 5 5 8 5 6 7 6 5 5 5 6 5 8 8 6 7 3 6 5 6 7 6 5 6 3 3 3 5 7 6 4 8
26 28 28 36 3 4 4 2 7 3 4 6 4 7 5 7 4 8 6 6 1 8 8 4 4 6 9 6 4 4 6 6 12 4 4 2 3 5 6 6 6 8 8 8 7
26 26 22 14 5 3 1 7 5 2 3 2 3 1 1 8 3 7 4 5 9 6 6 7 3 6 4 6 7 2 12 8 5 6 5 3 4 7 3 6 9 9 11 8 10
28 26 22 1 2 7 11 8 2 5 5 5 3 4 3 2 2 4 4 3 5 5 3 6 2 4 3 6 6 10 8 8 5 4 2 4 3 5 5 9 5 8 10 11 11
31 30 13 4 4 5 7 2 5 3 4 5 2 2 2 5 3 4 7 6 6 6 3 2 3 3 7 9 6 4 6 3 3 3 4 2 2 8 6 6 10 10 11 10 10
33 28 2 5 8 5 3 5 3 2 4 4 3 2 6 3 4 2 7 6 1 7 4 6 5 6 6 7 9 3 4 5 6 5 3 5 5 4 6 5 9 5 0 7 8
27 3 2 3 10 1 4 3 7 6 2 5 4 2 4 5 4 3 6 9 8 7 7 5 6 1 1 4 8 5 4 4 7 3 3 2 6 8 2 5 5 6 4 8 8
4 4 4 2 10 3 4 5 4 3 0 1 2 1 2 5 2 6 7 5 7 8 5 7 2 2 2 6 7 6 9 3 3 4 2 3 4 4 3 6 5 5 8 8 5
3 4 4 4 2 4 4 7 5 6 4 1 2 2 1 3 1 2 6 3 5 6 5 5 4 4 5 4 7 2 2 3 5 4 5 3 5 7 9 8 9 7 7 6 3
4 3 3 2 3 1 4 5 3 3 2 0 1 3 4 2 1 2 5 5 2 10 9 6 5 4 8 1 4 4 7 6 5 5 2 3 5 2 6 7 7 7 4 4 5
3 3 3 4 2 2 4 5 2 3 4 4 3 4 1 1 0 2 2 4 5 7 10 8 1 2 7 6 3 4 5 4 5 4 5 6 5 3 4 5 2 7 6 6 6
3 4 3 2 1 2 2 4 3 4 3 4 4 1 2 1 4 4 2 4 8 3 3 8 5 8 7 7 4 3 6 6 2 4 7 6 4 3 5 8 6 6 6 8 7
2 2 4 2 2 2 2 2 3 4 3 6 3 6 6 5 3 6 4 6 6 6 4 7 7 6 8 6 5 6 9 11 7 6 7 6 9 8 9 10 9 8 10 11 11
2 3 5 4 4 3 5 6 9 5 5 4 5 7 6 6 5 3 1 1 5 6 2 1 4 5 8 6 8 6 5 2 4 3 5 7 5 4 5 7 8 9 13 12 12
2 2 1 4 4 2 4 5 5 4 5 8 8 6 3 6 8 14 10 7 8 3 5 4 7 5 7 4 5 4 8 7 5 5 7 5 8 8 6 9 12 11 11 14 14
Wind_Direction
357 357 354 351 348 342 338 333 332 331 328 328 330 331 329 326 326 213 243 222 156 145 122 134 187 171 124 75 140 113 73 140 152 169 153 145 130 173 95 130 104 72 107 126 127
353 352 349 346 344 339 335 330 327 328 327 327 326 327 327 332 315 243 250 168 140 144 145 159 144 156 37 45 42 70 99 202 193 155 150 143 141 129 112 104 53 78 82 117 130
350 347 345 343 341 337 332 326 323 324 325 325 323 326 324 328 316 253 199 150 152 143 111 120 88 66 105 314 22 133 104 339 67 118 130 131 100 92 132 112 198 148 141 141 145
346 344 341 340 337 334 330 325 319 319 322 322 320 325 320 211 184 12 178 130 152 122 106 123 133 166 61 81 43 69 45 145 116 121 125 136 120 101 153 201 143 152 148 150 163
342 341 339 337 334 332 328 320 315 314 319 318 319 328 350 305 258 3 128 120 131 106 164 146 133 137 103 311 80 64 1 50 107 116 121 123 121 123 131 114 125 133 151 163 171
340 339 337 334 332 329 324 317 312 310 313 312 314 322 340 262 294 95 125 136 143 159 161 189 204 87 87 42 8 53 73 107 105 108 116 119 124 89 161 127 139 150 168 175 186
338 337 335 332 329 326 321 313 311 308 307 301 296 273 65 242 91 98 131 172 172 189 125 200 241 46 151 66 342 12 83 73 52 108 94 96 51 207 151 148 159 174 180 191 203
338 337 336 331 327 323 318 313 311 306 301 280 220 215 245 254 4 335 200 245 254 256 355 307 168 108 90 101 31 47 50 78 301 109 143 80 246 270 168 159 180 183 200 202 209
337 335 333 329 326 322 317 313 309 310 51 127 119 135 263 169 216 229 165 219 149 9 331 294 40 96 70 84 65 354 139 103 115 281 118 84 240 242 185 177 198 211 201 207 209
337 333 332 329 326 323 322 310 279 303 128 221 261 40 262 157 281 150 186 173 162 119 223 169 55 88 57 90 204 163 125 109 164 203 146 139 215 282 183 191 213 216 225 231 219
337 334 331 328 327 325 335 9 14 350 20 206 198 262 274 299 256 186 179 179 102 79 155 176 87 229 197 163 223 136 127 154 203 188 106 214 188 234 194 207 227 232 232 230 229
336 334 334 329 326 323 295 71 96 208 306 248 247 272 267 70 316 274 135 129 158 166 118 51 225 218 134 159 141 119 141 185 119 146 104 184 233 264 176 227 222 220 225 223 194
335 335 336 331 324 7 324 125 48 43 193 292 198 206 219 145 213 242 164 145 148 132 166 162 213 148 139 171 173 165 150 176 141 113 48 104 325 247 244 209 232 235 226 198 202
334 332 339 335 50 332 287 41 329 225 50 275 247 263 155 152 246 200 204 138 161 174 150 224 254 158 145 186 139 151 195 124 131 95 151 69 235 283 216 244 231 245 207 205 197
330 326 336 335 290 311 42 331 310 121 12 232 213 329 84 168 165 212 168 54 155 151 119 237 176 143 157 216 160 93 100 105 89 85 94 320 82 267 134 220 244 241 229 197 210
323 320 329 169 274 247 324 314 108 42 256 348 141 162 148 243 236 111 131 73 140 120 34 191 225 167 118 31 116 135 85 58 56 92 40 230 134 274 192 207 227 235 232 210 196
318 314 310 185 235 348 323 29 49 153 315 328 332 11 182 192 230 163 144 156 149 115 142 350 264 59 115 76 3 108 84 25 16 20 216 46 83 241 225 227 206 219 232 211 188
321 313 200 212 254 337 7 58 187 243 261 304 344 296 184 159 228 118 122 152 160 108 116 149 299 184 179 155 167 143 130 148 178 182 202 70 232 255 222 226 211 222 296 192 193
325 335 293 270 208 334 79 108 208 207 253 338 316 130 192 345 186 142 162 181 174 173 134 134 257 255 131 128 140 193 214 150 111 15 83 232 290 318 122 134 183 219 182 222 225
330 339 294 21 158 90 82 226 218 217 359 23 92 12 103 340 168 152 163 200 177 193 138 196 154 73 185 96 34 131 154 73 11 125 151 308 285 203 154 204 208 188 221 254 232
12 22 323 84 68 52 168 226 229 245 236 109 161 46 85 62 65 242 198 259 183 168 115 138 94 294 115 207 160 118 119 58 116 115 144 145 261 215 193 196 191 213 221 242 245
347 11 325 29 58 15 162 204 205 208 318 129 165 231 225 253 224 269 224 238 168 145 152 201 143 200 210 226 205 139 165 185 124 209 57 133 257 271 233 203 176 198 178 83 70
2 281 316 73 157 271 270 272 207 188 191 159 237 201 152 126 128 263 269 288 11 183 159 178 239 71 351 357 125 184 188 143 115 100 191 127 255 332 155 146 126 159 117 96 91
4 345 326 71 149 196 229 244 234 223 225 180 200 147 69 298 199 279 277 296 7 319 350 134 140 161 190 196 160 188 173 183 125 122 165 203 171 257 189 157 144 129 119 103 92
41 279 323 300 283 260 295 291 190 196 220 178 172 210 173 212 209 224 229 296 293 279 210 143 166 169 224 199 183 219 189 178 199 163 150 208 173 218 201 179 163 143 122 111 110
49 354 346 289 297 237 193 229 233 241 201 247 209 237 205 194 210 337 282 177 264 354 146 247 197 179 228 210 199 224 188 82 73 168 100 127 218 194 123 101 130 148 129 123 124
311 329 270 282 301 264 220 215 238 115 256 221 212 236 205 234 231 250 227 243 262 14 335 304 136 119 240 217 129 330 232 186 172 175 151 155 207 155 134 165 161 147 136 134 131